Theta_e
311 311 311 311 311 311 312 312 313 313 314 314 316 317 313 313 314 315 315 315 315 316 318 317 316 316 318 320 319 318 322 324 324 322 322 318 318 316 315 317 315 315 316 316 314
311 311 311 310 310 310 310 310 311 311 312 313 313 315 317 315 315 314 316 315 315 317 319 317 318 317 320 321 320 321 324 324 321 321 320 319 318 319 315 316 316 315 313 314 312
313 313 313 313 313 312 312 311 310 310 310 311 312 313 314 317 316 318 316 315 314 316 319 317 318 318 321 321 321 322 324 321 320 318 318 318 318 317 317 319 319 318 317 312 311
313 313 314 314 314 313 313 312 312 311 311 310 310 311 313 316 319 317 316 315 313 314 318 317 317 318 321 322 321 321 321 319 319 317 317 317 317 317 316 318 318 318 318 315 312
314 314 314 314 314 314 314 314 313 312 311 311 310 310 312 316 317 315 316 315 313 312 315 317 319 320 322 321 319 319 321 318 317 316 316 316 316 317 317 318 317 316 315 314 312
314 314 314 314 314 314 314 314 314 313 312 311 310 310 312 316 315 314 316 316 313 312 312 316 319 318 319 319 319 318 318 318 318 317 316 316 317 315 318 318 317 317 314 313 312
314 314 314 314 315 315 315 314 314 314 313 312 310 310 313 315 314 313 314 316 315 313 313 313 317 318 318 320 317 316 318 320 319 317 317 315 317 317 317 316 316 316 315 313 313
311 313 314 314 314 314 314 314 314 314 313 311 310 311 315 314 312 313 313 315 315 313 311 311 315 317 317 315 317 318 319 320 320 317 315 315 320 320 319 317 315 316 316 314 313
306 307 307 310 311 313 313 313 313 313 313 310 310 312 315 314 313 313 315 314 314 311 311 313 315 317 316 318 320 321 321 320 320 317 317 316 320 320 318 316 316 316 316 316 314
309 307 307 306 307 308 310 311 312 312 311 311 312 315 314 314 314 315 315 314 312 311 313 314 316 318 319 319 319 319 319 319 319 319 316 317 317 318 318 318 318 317 316 316 316
311 311 309 307 306 306 307 309 312 313 310 315 317 317 315 314 315 314 315 313 312 313 316 316 317 319 319 319 319 319 318 318 318 318 317 318 318 318 318 318 318 317 317 316 316
313 310 310 309 307 306 306 307 307 308 310 311 310 311 312 313 316 315 314 313 313 316 316 317 317 318 318 318 318 318 318 318 318 318 315 317 317 318 318 318 317 316 316 315 315
320 317 312 309 306 305 305 306 306 308 313 312 310 311 311 310 313 315 314 313 315 316 317 317 317 316 316 317 317 317 318 318 318 319 314 314 316 317 317 316 315 315 314 314 314
322 321 320 309 306 306 306 307 309 310 310 312 309 312 310 312 311 312 313 313 315 315 315 316 316 316 316 316 316 317 317 318 319 318 319 315 318 318 317 317 317 316 315 315 315
322 321 321 318 307 311 308 309 309 306 317 311 310 309 313 312 311 310 311 311 314 314 315 315 317 315 316 316 316 317 312 315 316 317 318 317 318 317 316 316 315 315 314 315 315
322 321 320 319 314 306 307 308 309 310 313 310 312 312 314 312 311 308 310 310 311 313 314 315 311 314 316 311 313 311 313 313 313 315 318 317 317 316 317 314 314 314 314 314 313
322 322 320 319 316 310 306 308 309 309 309 312 313 313 314 315 313 311 311 311 313 315 316 317 316 314 311 314 310 311 316 319 321 321 319 317 316 317 316 314 314 314 314 314 311
322 322 322 320 318 315 307 309 309 312 312 311 312 313 315 315 315 313 313 314 313 314 315 317 317 315 311 315 318 313 317 320 322 319 318 316 317 317 317 315 314 314 313 311 309
323 322 319 320 320 317 308 309 314 316 313 311 312 312 313 314 314 315 314 316 315 313 315 315 315 308 309 309 314 314 315 315 319 321 320 317 318 319 315 314 313 312 310 310 309
320 318 319 319 318 315 308 311 315 313 311 310 311 312 312 313 313 313 314 315 315 314 315 315 316 313 304 306 306 310 310 315 314 321 321 318 318 317 316 316 314 313 311 311 311
317 317 317 316 316 310 308 309 315 312 309 308 310 312 313 314 314 313 313 314 314 315 313 314 315 313 306 308 313 308 311 309 310 316 318 317 315 315 315 315 314 314 312 311 312
317 314 315 316 310 308 307 311 313 314 309 307 308 309 310 311 311 311 312 313 312 312 312 312 315 316 315 313 308 311 313 313 314 315 313 314 315 311 314 313 312 312 311 311 310
315 315 314 314 315 310 308 311 312 315 312 307 308 308 310 308 308 310 312 312 311 311 312 311 314 316 314 310 305 308 310 310 313 313 314 317 316 314 315 313 311 311 311 310 310
311 314 308 309 313 314 311 313 314 314 314 312 309 308 309 309 309 310 312 312 311 310 310 310 312 313 315 315 314 311 310 310 310 313 313 313 313 313 313 313 314 313 313 312 312
308 313 311 309 310 312 313 314 315 315 314 313 313 311 311 313 313 311 310 310 310 309 308 310 312 312 313 313 313 312 311 311 311 311 312 313 313 313 313 314 314 313 311 311 310
304 308 308 308 311 310 312 313 314 314 315 316 312 312 312 311 313 316 314 312 311 308 308 309 311 311 311 311 312 312 312 312 312 312 312 311 312 312 311 311 311 310 311 311 310
302 302 299 302 307 310 311 313 313 314 314 315 315 312 313 311 310 312 314 314 310 310 308 307 308 310 312 312 313 313 313 312 313 313 313 312 312 313 312 312 312 312 312 311 310
Wind_Speed
6 7 7 8 8 9 10 10 10 10 10 10 7 5 5 5 7 8 8 8 7 5 4 3 3 5 5 4 4 3 5 6 5 5 1 4 9 5 6 10 7 10 9 11 10
7 7 9 9 10 10 10 10 10 10 10 9 9 8 8 10 11 16 14 10 8 6 4 4 4 7 5 4 4 6 5 4 1 4 5 5 10 9 7 13 18 16 15 18 17
9 9 9 10 11 11 11 11 11 11 11 11 9 9 9 10 11 10 17 15 11 8 5 5 5 8 8 6 7 3 5 2 6 8 6 8 9 11 11 16 18 19 20 21 22
11 11 12 12 12 13 13 13 13 13 13 12 12 10 9 7 6 6 9 16 13 9 6 5 6 5 6 7 7 5 12 8 3 5 5 9 8 8 20 25 9 13 17 23 25
13 14 14 14 14 14 14 15 15 15 15 14 13 12 9 7 13 17 12 14 14 11 7 6 8 8 8 5 5 9 10 7 11 8 11 12 15 13 22 23 21 17 19 20 24
17 16 16 16 17 17 16 17 17 16 16 16 15 13 8 13 15 15 13 16 17 14 11 8 5 6 9 6 7 5 9 14 10 14 11 9 15 5 15 15 23 22 21 22 25
22 21 20 20 20 20 19 19 19 18 18 18 16 13 13 19 18 16 15 16 17 16 10 13 10 5 1 6 5 6 9 13 15 14 7 8 11 18 25 12 13 17 23 24 27
25 25 24 23 23 23 22 21 21 21 20 18 15 11 10 17 18 18 17 15 15 15 15 13 10 7 5 3 5 6 7 11 1 11 5 9 18 12 12 13 16 19 22 24 28
22 24 25 25 25 25 24 23 23 22 21 18 12 8 9 13 13 17 15 10 13 12 11 9 7 6 4 7 12 12 12 15 15 17 5 13 15 3 4 10 19 24 26 26 27
20 21 21 22 24 25 24 23 23 22 18 11 11 5 16 7 10 11 14 13 7 8 4 7 7 9 8 10 14 17 17 20 20 9 14 14 21 23 23 24 28 33 32 31 31
19 20 20 19 20 22 23 18 10 7 7 9 4 7 8 9 9 9 12 13 8 9 10 11 9 16 17 19 21 21 22 24 26 11 10 19 22 24 28 26 29 35 33 32 30
19 19 19 17 18 17 17 7 10 9 12 16 23 27 28 24 8 14 14 12 10 15 16 5 17 22 18 13 13 20 22 27 23 6 7 17 22 21 22 30 34 32 33 30 23
24 23 21 19 14 15 14 12 10 8 8 10 21 15 18 22 13 16 21 11 11 15 18 21 19 4 5 13 13 18 21 22 20 10 12 13 16 16 14 23 26 29 35 29 22
23 26 23 20 10 11 10 7 3 3 6 8 7 5 8 7 6 15 17 10 8 12 18 18 21 20 17 20 16 18 12 17 19 11 11 2 16 12 16 19 15 26 34 25 19
22 24 25 17 13 8 6 3 2 0 9 3 4 4 8 8 3 3 17 8 15 10 6 10 7 6 13 14 12 11 2 5 9 13 18 16 14 15 8 11 13 17 31 32 11
21 23 26 20 13 13 7 2 2 6 12 5 7 6 5 8 4 4 5 4 1 7 13 20 2 5 6 2 5 3 4 7 6 8 11 17 18 9 7 5 5 15 25 16 11
21 23 24 22 10 10 9 3 6 11 3 9 8 8 8 9 8 10 8 10 8 6 11 11 22 5 5 6 5 7 5 6 8 9 18 14 12 14 10 12 13 25 29 9 8
22 24 32 26 21 11 13 6 15 8 20 5 4 7 10 13 8 11 7 9 17 12 5 7 11 16 13 15 4 13 9 5 16 15 24 3 13 11 13 13 26 20 18 13 13
25 31 36 35 30 17 16 12 16 15 15 5 2 8 10 9 5 11 13 13 9 21 13 9 17 3 6 3 5 8 7 2 8 3 12 12 20 14 6 10 12 13 13 18 18
23 24 32 37 36 30 9 28 18 17 10 9 19 15 21 21 12 11 13 8 10 17 20 9 16 8 6 2 2 5 2 4 4 8 17 18 18 15 19 21 12 9 12 22 15
26 12 26 21 26 11 5 12 18 28 15 11 19 24 22 21 19 20 14 11 11 8 14 10 10 6 7 10 14 6 6 6 3 7 10 20 7 5 8 7 7 7 13 16 11
22 6 15 19 11 7 5 9 10 21 12 12 12 19 23 22 25 24 25 20 14 8 7 5 2 10 25 7 3 13 18 18 8 12 10 13 28 4 4 1 6 4 9 6 7
11 20 15 25 8 9 7 16 15 13 7 6 11 15 16 17 14 20 25 22 22 11 10 8 1 5 16 10 4 8 13 13 18 14 29 13 27 2 10 9 8 9 15 19 24
9 4 9 27 30 20 16 21 22 29 23 26 11 11 19 17 18 9 19 13 20 17 21 15 8 15 21 17 4 11 16 18 20 17 23 26 29 38 33 27 25 32 39 37 34
9 6 10 6 14 19 20 15 27 27 29 21 13 25 20 14 20 22 24 30 23 17 1 6 19 24 32 36 33 24 19 17 28 26 20 31 25 33 33 27 30 39 46 40 45
7 5 7 8 21 21 25 20 27 30 27 23 23 24 27 26 24 26 22 19 19 4 11 7 13 21 27 31 34 28 25 35 31 31 32 29 32 31 38 49 39 48 45 39 45
8 10 9 5 5 8 16 29 33 28 36 36 30 23 25 28 43 47 42 32 7 7 12 6 6 9 20 26 24 19 36 37 36 38 32 28 35 36 35 32 32 43 34 37 36
Wind_Direction
339 345 350 353 358 0 0 0 1 3 4 1 351 309 274 272 274 261 254 236 236 249 272 240 271 222 205 239 219 232 250 267 280 264 302 170 212 204 224 225 210 224 238 221 215
327 336 340 344 347 350 351 349 349 348 346 344 339 323 296 273 280 269 251 243 236 240 259 211 244 197 218 236 228 236 259 288 305 258 257 219 235 220 216 223 232 236 231 235 223
313 321 326 329 334 336 338 341 341 338 336 332 327 318 308 293 291 257 248 234 233 235 247 227 223 197 242 232 210 210 254 347 255 240 243 251 238 223 231 245 235 239 233 233 219
302 308 313 317 322 324 327 327 328 329 327 324 319 311 299 284 271 287 249 222 230 234 235 224 190 209 241 223 211 257 252 245 271 240 238 239 260 235 231 242 256 249 244 224 221
293 298 303 307 310 312 315 318 318 319 319 317 316 308 294 259 254 267 264 235 235 239 236 233 234 252 250 235 226 248 268 252 252 245 245 253 248 253 259 253 252 248 237 218 229
288 291 295 299 301 304 308 311 311 313 312 311 309 300 274 256 261 263 252 239 237 238 241 233 260 261 287 259 235 340 275 267 260 243 237 240 261 244 263 254 245 238 238 232 229
287 289 291 294 297 298 300 304 305 307 306 304 301 290 263 258 267 262 249 242 237 236 238 244 248 235 283 263 246 270 276 270 244 234 235 217 257 236 257 247 239 238 238 237 234
283 285 287 289 292 294 298 301 302 304 304 299 292 276 258 263 259 255 247 242 239 238 236 242 238 236 226 247 246 257 252 273 25 182 203 193 268 253 259 216 239 251 250 245 239
287 285 285 286 287 289 294 298 301 303 300 293 279 238 262 262 250 248 237 234 231 230 227 228 218 242 211 243 267 218 267 272 276 189 167 208 272 273 219 248 266 267 264 259 247
291 291 290 290 288 289 292 298 301 299 287 278 246 243 245 244 248 238 225 215 205 208 212 207 221 238 220 229 249 276 284 287 276 203 213 231 251 270 271 275 271 271 269 268 259
300 296 296 294 289 290 293 309 305 283 251 225 216 243 271 252 254 238 216 199 195 208 217 200 224 231 239 235 252 275 282 279 274 272 217 242 255 266 279 278 275 272 275 268 260
315 308 303 297 288 286 290 284 264 268 295 261 255 249 255 262 249 230 207 186 194 221 219 207 236 252 274 280 271 268 267 271 276 291 211 267 269 269 272 269 270 274 274 269 269
318 320 324 310 292 278 271 269 270 275 261 252 244 238 241 242 239 236 201 201 216 232 226 241 258 96 271 256 251 249 250 260 263 280 224 274 272 258 247 254 262 270 268 274 263
309 312 319 325 308 284 269 266 243 312 264 225 203 202 221 198 252 212 198 211 211 245 240 257 266 265 263 254 254 264 267 256 266 277 265 154 286 276 285 272 252 266 276 273 262
299 302 307 326 299 322 289 224 194 324 276 107 164 201 172 193 97 208 196 207 237 213 191 230 225 224 238 250 231 233 357 251 257 259 277 265 270 275 229 264 249 255 262 279 263
291 288 297 307 306 274 254 255 256 237 241 183 155 181 179 203 190 134 179 194 254 245 240 258 104 231 235 111 241 71 267 239 232 255 253 259 242 277 229 206 241 259 262 263 255
282 279 273 284 274 285 228 168 256 236 123 187 200 176 218 197 201 191 173 188 191 185 220 226 230 204 187 212 176 203 238 280 254 234 262 271 264 264 277 245 241 262 271 271 244
275 275 265 262 263 265 187 195 244 256 230 69 153 184 205 179 223 198 192 228 228 244 275 249 252 199 198 222 276 194 221 235 281 274 284 294 266 256 256 237 242 258 259 252 237
267 259 246 245 249 229 191 213 236 240 255 261 210 237 221 218 227 198 215 228 225 198 211 229 253 124 191 165 196 167 203 308 280 258 279 260 261 254 159 206 238 246 247 249 245
284 273 269 258 245 208 201 234 241 223 250 242 233 217 242 230 195 195 219 218 229 204 226 254 273 180 128 170 237 233 73 198 208 280 270 270 286 277 271 254 228 241 235 258 245
268 258 268 260 242 195 235 240 258 257 255 242 252 256 253 251 239 230 236 238 197 205 219 235 227 241 145 201 218 190 218 218 293 245 263 285 269 89 131 157 181 219 242 260 226
256 226 237 210 179 182 223 233 259 271 286 260 268 263 265 267 259 254 249 250 197 154 195 212 292 248 250 262 244 256 238 216 220 229 235 260 274 13 263 273 129 196 238 228 253
253 241 234 208 216 207 224 232 236 250 227 209 242 247 255 260 271 265 271 269 264 186 187 166 223 269 279 242 168 217 220 238 237 252 250 241 261 319 283 213 225 196 243 250 261
256 231 183 206 227 229 218 233 236 238 242 229 221 246 261 254 256 261 263 266 256 253 239 169 209 231 238 240 211 206 221 223 223 236 250 241 264 273 266 274 276 279 280 279 279
243 252 218 198 226 227 223 227 240 243 228 224 231 221 221 232 243 246 253 260 265 258 134 217 228 226 237 255 262 268 270 237 230 233 240 256 244 258 276 273 277 284 283 288 288
268 290 310 292 252 218 225 223 233 242 235 227 227 228 223 225 223 249 228 239 230 177 244 210 242 237 244 248 253 254 252 253 261 257 255 252 266 259 266 275 276 276 284 287 286
257 280 322 265 299 266 242 238 235 235 246 244 247 234 235 226 229 241 252 253 148 202 210 199 221 230 245 246 254 251 239 247 251 254 247 248 253 265 266 259 265 276 285 279 286